SCP
0 0 0 0 0 0 0 0 0 0 0 0 0 0 0 0 0 0 0 0 0 0 0 0 0 0 0 0 0 0 0 0 0 0 0 0 0 0
0 0 0 0 0 0 0 0 0 0 0 0 0 0 0 0 0 0 0 0 0 0 0 0 0 0 0 0 0 0 0 0 0 0 0 0 0 0
0 0 0 0 0 0 0 0 0 0 0 0 0 0 0 0 0 0 0 0 0 0 0 0 0 0 0 0 0 0 0 0 0 0 0 0 0 0
0 0 0 0 0 0 0 0 0 0 0 0 0 0 0 0 0 0 0 0 0 0 0 0 0 0 0 0 0 0 0 0 0 0 0 0 0 0
0 0 0 0 0 0 0 0 0 0 0 0 0 0 0 0 0 0 0 0 0 0 0 0 0 0 0 0 0 0 0 0 0 0 0 0 0 0
0 0 0 0 0 0 0 0 0 0 0 0 0 0 0 0 0 0 0 0 0 0 0 0 0 0 0 0 0 0 0 0 0 0 0 0 0 0
0 0 0 0 0 0 0 0 0 0 0 0 0 0 0 0 0 0 0 0 0 0 0 0 0 0 0 0 0 0 0 0 0 0 0 0 0 0
0 0 0 0 0 0 0 0 0 0 0 0 0 0 0 0 0 0 0 0 0 0 0 0 0 0 0 0 0 0 0 0 0 0 0 0 0 0
0 0 0 0 0 0 0 0 0 0 0 0 0 0 0 0 0 0 0 0 0 0 0 0 0 0 0 0 0 0 0 0 0 0 0 0 0 0
0 0 0 0 0 0 0 0 0 0 0 0 0 0 0 0 0 0 0 0 0 0 0 0 0 0 0 0 0 0 0 0 0 0 0 0 0 0
0 0 0 0 0 0 0 0 0 0 0 0 0 0 0 0 0 0 0 0 0 0 0 0 0 0 0 0 0 0 0 0 0 0 0 0 0 0
0 0 0 0 0 0 0 0 0 0 0 0 0 0 0 0 0 0 0 0 0 0 0 0 0 0 0 0 0 0 0 0 0 0 0 0 0 0
0 0 0 0 0 0 -0 0 0 0 -0 0 0 0 0 0 0 0 0 0 0 0 0 0 0 0 0 0 0 0 0 0 0 0 0 0 0 0
0 0 0 -0 -0 0 -0 -0 -0 -0 0 -0 0 0 0 0 0 0 0 0 0 0 0 0 0 0 0 0 0 0 0 0 0 0 0 0 0 0
0 0 0 -0 0 0 -0 -0 -0 0 0 0 0 0 0 0 0 0 0 -0 0 0 0 0 0 0 0 0 0 0 0 0 0 0 0 0 0 0
-0 0 0 0 0 0 -0 -0 -0 0 0 0 0 0 0 0 0 0 0 0 0 0 0 0 0 0 0 0 0 0 0 0 0 0 0 0 0 0
0 0 0 0 0 0 0 -0 0 0 0 0 0 0 0 0 0 0 0 0 0 0 0 0 0 0 0 0 0 0 0 0 0 0 0 0 0 0
0 0 0 0 0 0 -0 -0 -0 0 -0 0 0 0 0 0 0 -0 0 0 0 0 0 0 0 0 0 0 0 0 0 0 0 0 0 0 0 0
0 0 0 0 0 0 -0 -0 0 0 0 0 -0 -0 0 0 0 -0 -0 0 0 0 0 0 0 0 0 0 0 0 0 0 0 0 0 0 0 0
0 0 0 0 0 0 0 0 0 0 0 -0 -0 -0 -0 -0 -0 0 0 0 0 0 0 0 0 0 0 0 0 0 0 0 0 0 0 0 0 0
0 0 0 0 0 0 0 0 0 -0 -0 -0 -0 -0 -0 -0 0 -0 0 -0 -0 0 0 0 0 0 0 0 0 0 0 0 0 0 0 0 0 0
0 0 0 0 0 0 0 0 0 -0 -0 0 -0 -0 -0 0 -0 -0 0 0 -0 0 0 0 0 0 0 0 0 0 0 0 0 0 0 0 0 0
0 0 0 0 0 0 0 0 0 -0 0 0 0 -0 0 0 0 0 0 0 -0 0 0 0 0 0 0 0 0 0 0 0 0 0 0 0 0 0
Wind_Speed_500mb
66 65 65 64 61 61 61 61 61 78 82 65 63 63 60 57 55 59 55 52 54 61 67 64 59 55 56 51 53 54 51 49 46 52 72 77 74 68
68 66 66 66 64 61 61 61 63 70 90 73 62 57 66 71 66 55 51 47 45 47 50 56 69 65 53 54 48 51 48 45 47 48 51 71 82 80
65 64 65 60 60 59 59 62 62 60 72 95 69 68 70 72 67 56 58 56 53 53 53 54 55 69 66 56 57 53 53 50 49 49 51 58 65 85
62 58 60 59 66 72 64 63 72 74 79 97 70 76 77 72 66 67 61 52 51 51 53 54 54 55 68 74 66 69 64 68 64 54 52 55 57 71
64 66 71 68 68 61 63 64 66 70 78 84 83 79 81 75 63 61 59 55 47 44 46 52 57 60 58 66 79 72 72 74 67 61 61 58 56 61
54 56 58 59 62 63 66 70 69 71 75 77 78 74 71 66 64 59 58 53 50 43 45 48 45 47 55 57 60 78 78 75 71 64 63 59 65 72
60 59 60 60 57 60 73 70 62 70 65 68 72 70 67 56 56 53 57 57 54 49 49 46 49 53 56 59 57 64 66 82 76 67 62 64 66 67
62 60 55 59 60 57 54 52 52 57 50 49 52 48 50 62 49 56 57 58 64 60 54 50 49 53 54 61 64 64 62 75 80 70 62 71 67 64
55 59 59 57 52 53 48 49 48 50 52 54 58 57 55 57 60 58 61 65 73 68 62 63 58 56 48 48 53 58 62 78 82 71 62 58 65 67
54 53 58 48 47 49 51 53 60 62 63 63 62 63 62 69 67 69 72 75 76 70 64 71 61 60 52 45 38 42 47 69 67 69 65 58 55 58
52 52 50 49 47 46 50 58 68 74 73 65 64 65 64 63 67 67 78 73 72 69 67 63 61 57 50 50 44 36 40 51 53 55 69 65 60 59
55 57 54 49 53 52 53 64 68 59 66 72 67 64 64 64 60 53 55 51 43 54 69 64 64 57 45 49 57 51 52 56 57 51 54 60 60 57
58 60 52 56 49 49 55 51 66 66 71 69 62 58 56 47 42 45 47 54 75 81 69 57 58 55 57 21 36 54 51 54 62 64 60 57 59 54
55 49 56 48 49 53 51 57 50 54 41 22 36 28 21 31 38 43 47 51 43 61 60 63 47 41 47 46 46 27 30 31 45 59 67 69 64 60
52 47 49 53 49 57 52 41 41 36 19 15 14 20 25 33 41 41 37 30 21 48 49 42 47 35 34 40 42 44 32 29 35 33 45 62 63 60
55 55 57 54 49 41 38 35 33 29 25 27 28 29 25 28 31 26 34 27 28 35 37 45 48 45 42 46 32 32 35 20 25 25 36 45 50 52
52 56 55 50 43 33 34 33 31 29 31 35 35 34 34 36 34 26 29 36 42 41 42 45 45 49 53 53 50 39 36 30 27 23 34 45 42 46
50 51 48 44 41 36 34 36 36 32 31 35 34 33 37 39 34 34 37 42 49 55 51 45 48 47 45 51 56 51 45 37 31 30 27 46 48 45
42 44 43 42 42 42 35 34 39 37 31 30 28 31 38 40 36 40 39 44 52 52 61 54 49 50 51 49 44 56 50 44 38 40 35 37 53 50
44 46 44 41 39 43 38 33 36 35 27 25 28 34 36 33 36 41 44 50 62 60 62 61 61 54 54 52 41 45 40 42 46 44 38 32 40 47
51 46 46 40 38 39 37 32 32 32 24 23 28 28 25 37 46 54 48 49 47 59 66 71 64 52 51 40 34 40 33 38 42 40 37 33 42 49
54 46 47 39 38 37 32 33 30 26 19 18 23 28 34 41 54 43 32 28 44 55 55 58 52 48 50 49 45 39 35 31 38 44 40 42 50 50
50 46 43 39 37 31 29 30 27 20 13 13 18 26 36 44 54 39 41 16 19 48 54 56 46 51 51 52 51 47 34 34 43 52 48 45 53 55
Wind_Direction_500mb
291 289 286 286 283 282 280 278 280 285 285 285 286 290 289 290 291 293 285 276 269 263 260 258 257 256 253 250 251 250 250 253 252 248 241 237 235 228
290 288 286 286 285 282 279 276 272 273 281 282 280 282 289 291 292 288 282 283 273 266 263 259 252 250 248 246 241 244 246 247 247 250 248 241 236 238
291 288 287 287 285 282 280 281 271 267 272 281 280 284 284 287 289 285 285 280 275 267 263 261 261 250 243 239 234 237 244 249 254 253 246 245 242 236
293 289 284 283 284 287 284 278 270 269 269 279 282 283 283 285 285 286 285 280 273 266 263 260 260 258 245 239 238 238 240 253 256 257 250 245 243 237
295 289 287 288 286 281 279 279 275 272 270 274 279 280 281 284 286 288 282 283 274 266 264 259 255 255 253 244 239 238 242 251 258 261 251 237 237 240
301 297 291 289 288 285 282 280 276 273 272 269 271 280 281 281 280 281 281 283 282 271 267 261 255 252 250 249 248 243 238 243 253 256 245 237 238 239
297 296 294 293 283 281 280 285 284 273 276 268 270 275 275 275 271 276 277 284 281 275 270 263 251 251 252 250 251 249 248 238 244 247 245 233 235 240
294 296 295 290 284 287 289 282 286 283 280 277 262 264 287 267 275 279 279 270 276 275 275 268 264 260 255 250 250 256 254 232 234 238 241 233 236 239
296 298 296 295 294 284 289 290 289 282 281 280 278 277 273 275 281 276 267 264 268 265 267 274 268 265 257 255 250 249 246 229 230 232 233 232 233 236
296 296 299 294 294 295 293 298 298 294 289 284 281 277 271 271 270 268 274 268 263 261 253 261 266 260 260 251 241 243 243 224 225 231 228 229 231 233
298 302 302 295 301 295 291 292 290 287 286 281 273 271 272 272 272 274 271 259 248 247 245 251 254 262 264 240 227 226 222 216 227 231 229 231 233 237
303 303 300 295 294 293 290 288 295 297 296 289 283 274 270 271 266 263 271 274 256 251 248 239 247 242 256 256 224 223 223 222 223 226 229 230 230 235
301 302 298 306 295 292 291 300 298 300 292 276 276 277 280 258 261 261 269 271 272 253 240 239 236 240 244 242 227 227 228 235 233 233 231 227 224 229
301 306 308 311 306 300 300 297 302 302 312 283 258 282 269 266 269 267 270 288 272 228 218 229 234 238 231 231 232 194 199 223 234 235 233 227 230 230
311 310 304 306 301 302 300 303 300 301 346 326 298 293 297 288 273 265 264 277 267 224 220 226 225 224 226 231 242 235 232 236 227 238 227 219 223 224
318 312 309 307 308 304 301 307 303 293 298 290 291 293 294 300 297 276 250 254 246 231 223 226 224 225 231 234 237 217 213 206 210 227 214 212 212 221
311 308 309 309 307 305 304 306 305 295 290 285 284 292 304 303 283 257 253 246 249 241 228 221 220 228 240 232 223 223 221 226 210 202 210 204 209 213
311 310 316 318 315 315 302 302 306 300 298 300 290 291 305 300 276 268 267 245 243 242 235 227 222 223 228 229 225 231 234 234 220 215 214 211 211 214
317 319 320 320 313 307 305 296 297 302 293 291 299 303 302 294 283 277 270 253 244 239 232 227 219 211 214 220 232 236 234 227 220 217 218 220 220 217
327 329 321 316 311 306 309 300 296 300 294 292 307 316 312 310 295 286 278 257 238 227 224 226 220 216 209 214 214 229 227 225 218 218 222 226 223 215
330 331 326 313 304 300 302 299 293 291 289 299 321 342 342 328 319 306 284 261 246 223 210 214 218 221 219 226 221 231 233 221 219 220 212 221 212 203
331 330 329 314 304 299 294 291 285 280 281 309 340 357 351 334 339 329 319 303 234 204 203 209 212 202 208 218 219 218 228 206 207 209 210 217 204 202
335 334 328 317 308 302 291 279 276 267 266 321 355 356 357 347 1 2 21 3 177 184 186 199 198 205 215 212 213 214 215 211 212 201 212 213 204 201
Wind_Speed_850mb
66 65 65 64 61 61 61 61 61 78 82 65 63 63 60 57 55 59 55 52 54 61 67 64 59 55 56 51 53 54 51 49 46 52 72 77 74 68
68 66 66 66 64 61 61 61 63 70 90 73 62 57 66 71 66 55 51 47 45 47 50 56 69 65 53 54 48 51 48 45 47 48 51 71 82 80
65 64 65 60 60 59 59 62 62 60 72 95 69 68 70 72 67 56 58 56 53 53 53 54 55 69 66 56 57 53 53 50 49 49 51 58 65 85
62 58 60 59 66 72 64 63 72 74 79 97 70 76 77 72 66 67 61 52 51 51 53 54 54 55 68 74 66 69 64 68 64 54 52 55 57 71
64 66 71 68 68 61 63 64 66 70 78 84 83 79 81 75 63 61 59 55 47 44 46 52 57 60 58 66 79 72 72 74 67 61 61 58 56 61
54 56 58 59 62 63 66 70 69 71 75 77 78 74 71 66 64 59 58 53 50 43 45 48 45 47 55 57 60 78 78 75 71 64 63 59 65 72
60 59 60 60 57 60 73 70 62 70 65 68 72 70 67 56 56 53 57 57 54 49 49 46 49 53 56 59 57 64 66 82 76 67 62 64 66 67
62 60 55 59 60 57 54 52 52 57 50 49 52 48 50 62 49 56 57 58 64 60 54 50 49 53 54 61 64 64 62 75 80 70 62 71 67 64
55 59 59 57 52 53 48 49 48 50 52 54 58 57 55 57 60 58 61 65 73 68 62 63 58 56 48 48 53 58 62 78 82 71 62 58 65 67
54 53 58 48 47 49 51 53 60 62 63 63 62 63 62 69 67 69 72 75 76 70 64 71 61 60 52 45 38 42 47 69 67 69 65 58 55 58
52 52 50 49 47 46 50 58 68 74 73 65 64 65 64 63 67 67 78 73 72 69 67 63 61 57 50 50 44 36 40 51 53 55 69 65 60 59
55 57 54 49 53 52 53 64 68 59 66 72 67 64 64 64 60 53 55 51 43 54 69 64 64 57 45 49 57 51 52 56 57 51 54 60 60 57
58 60 52 56 49 49 55 51 66 66 71 69 62 58 56 47 42 45 47 54 75 81 69 57 58 55 57 21 36 54 51 54 62 64 60 57 59 54
55 49 56 48 49 53 51 57 50 54 41 22 36 28 21 31 38 43 47 51 43 61 60 63 47 41 47 46 46 27 30 31 45 59 67 69 64 60
52 47 49 53 49 57 52 41 41 36 19 15 14 20 25 33 41 41 37 30 21 48 49 42 47 35 34 40 42 44 32 29 35 33 45 62 63 60
55 55 57 54 49 41 38 35 33 29 25 27 28 29 25 28 31 26 34 27 28 35 37 45 48 45 42 46 32 32 35 20 25 25 36 45 50 52
52 56 55 50 43 33 34 33 31 29 31 35 35 34 34 36 34 26 29 36 42 41 42 45 45 49 53 53 50 39 36 30 27 23 34 45 42 46
50 51 48 44 41 36 34 36 36 32 31 35 34 33 37 39 34 34 37 42 49 55 51 45 48 47 45 51 56 51 45 37 31 30 27 46 48 45
42 44 43 42 42 42 35 34 39 37 31 30 28 31 38 40 36 40 39 44 52 52 61 54 49 50 51 49 44 56 50 44 38 40 35 37 53 50
44 46 44 41 39 43 38 33 36 35 27 25 28 34 36 33 36 41 44 50 62 60 62 61 61 54 54 52 41 45 40 42 46 44 38 32 40 47
51 46 46 40 38 39 37 32 32 32 24 23 28 28 25 37 46 54 48 49 47 59 66 71 64 52 51 40 34 40 33 38 42 40 37 33 42 49
54 46 47 39 38 37 32 33 30 26 19 18 23 28 34 41 54 43 32 28 44 55 55 58 52 48 50 49 45 39 35 31 38 44 40 42 50 50
50 46 43 39 37 31 29 30 27 20 13 13 18 26 36 44 54 39 41 16 19 48 54 56 46 51 51 52 51 47 34 34 43 52 48 45 53 55
Wind_Direction_850mb
291 289 286 286 283 282 280 278 280 285 285 285 286 290 289 290 291 293 285 276 269 263 260 258 257 256 253 250 251 250 250 253 252 248 241 237 235 228
290 288 286 286 285 282 279 276 272 273 281 282 280 282 289 291 292 288 282 283 273 266 263 259 252 250 248 246 241 244 246 247 247 250 248 241 236 238
291 288 287 287 285 282 280 281 271 267 272 281 280 284 284 287 289 285 285 280 275 267 263 261 261 250 243 239 234 237 244 249 254 253 246 245 242 236
293 289 284 283 284 287 284 278 270 269 269 279 282 283 283 285 285 286 285 280 273 266 263 260 260 258 245 239 238 238 240 253 256 257 250 245 243 237
295 289 287 288 286 281 279 279 275 272 270 274 279 280 281 284 286 288 282 283 274 266 264 259 255 255 253 244 239 238 242 251 258 261 251 237 237 240
301 297 291 289 288 285 282 280 276 273 272 269 271 280 281 281 280 281 281 283 282 271 267 261 255 252 250 249 248 243 238 243 253 256 245 237 238 239
297 296 294 293 283 281 280 285 284 273 276 268 270 275 275 275 271 276 277 284 281 275 270 263 251 251 252 250 251 249 248 238 244 247 245 233 235 240
294 296 295 290 284 287 289 282 286 283 280 277 262 264 287 267 275 279 279 270 276 275 275 268 264 260 255 250 250 256 254 232 234 238 241 233 236 239
296 298 296 295 294 284 289 290 289 282 281 280 278 277 273 275 281 276 267 264 268 265 267 274 268 265 257 255 250 249 246 229 230 232 233 232 233 236
296 296 299 294 294 295 293 298 298 294 289 284 281 277 271 271 270 268 274 268 263 261 253 261 266 260 260 251 241 243 243 224 225 231 228 229 231 233
298 302 302 295 301 295 291 292 290 287 286 281 273 271 272 272 272 274 271 259 248 247 245 251 254 262 264 240 227 226 222 216 227 231 229 231 233 237
303 303 300 295 294 293 290 288 295 297 296 289 283 274 270 271 266 263 271 274 256 251 248 239 247 242 256 256 224 223 223 222 223 226 229 230 230 235
301 302 298 306 295 292 291 300 298 300 292 276 276 277 280 258 261 261 269 271 272 253 240 239 236 240 244 242 227 227 228 235 233 233 231 227 224 229
301 306 308 311 306 300 300 297 302 302 312 283 258 282 269 266 269 267 270 288 272 228 218 229 234 238 231 231 232 194 199 223 234 235 233 227 230 230
311 310 304 306 301 302 300 303 300 301 346 326 298 293 297 288 273 265 264 277 267 224 220 226 225 224 226 231 242 235 232 236 227 238 227 219 223 224
318 312 309 307 308 304 301 307 303 293 298 290 291 293 294 300 297 276 250 254 246 231 223 226 224 225 231 234 237 217 213 206 210 227 214 212 212 221
311 308 309 309 307 305 304 306 305 295 290 285 284 292 304 303 283 257 253 246 249 241 228 221 220 228 240 232 223 223 221 226 210 202 210 204 209 213
311 310 316 318 315 315 302 302 306 300 298 300 290 291 305 300 276 268 267 245 243 242 235 227 222 223 228 229 225 231 234 234 220 215 214 211 211 214
317 319 320 320 313 307 305 296 297 302 293 291 299 303 302 294 283 277 270 253 244 239 232 227 219 211 214 220 232 236 234 227 220 217 218 220 220 217
327 329 321 316 311 306 309 300 296 300 294 292 307 316 312 310 295 286 278 257 238 227 224 226 220 216 209 214 214 229 227 225 218 218 222 226 223 215
330 331 326 313 304 300 302 299 293 291 289 299 321 342 342 328 319 306 284 261 246 223 210 214 218 221 219 226 221 231 233 221 219 220 212 221 212 203
331 330 329 314 304 299 294 291 285 280 281 309 340 357 351 334 339 329 319 303 234 204 203 209 212 202 208 218 219 218 228 206 207 209 210 217 204 202
335 334 328 317 308 302 291 279 276 267 266 321 355 356 357 347 1 2 21 3 177 184 186 199 198 205 215 212 213 214 215 211 212 201 212 213 204 201